Date String (YYYY-MM-DD hh:mm:ss) UTC,Instrument flags,absolute air pressure of the measurement (hPa),sample flow rate (lpm),inlet stack bypass flow (lpm),air temperature of the measurement (°C),ambient temperature measured by the external sensor (°C),aerosol sample conditioner tube jacket temperature (°C),OPC LED temperature (°C),internal box temperature (°C),relative humidity of the measurement (%),span deviation,mass concentration of particles derived from Lorenz-Mie calculation of OPC scattering (μg/m³),mass concentration of particles derived from Lorenz-Mie calculation of OPC scattering (μg/m³),mass concentration of particles derived from Lorenz-Mie calculation of OPC scattering (μg/m³)
DateTimeUTC,F1_M11,P_M11,Q1_M11,Q2_M11,T1_M11,T2_M11,T3_M11,T4_M11,T5_M11,U1_M11,ZSPAN_M11,X2_M11,X0_M11,X1_M11
2023-10-13 00:00:00,SystemResetWarning,0820.2,5.00,000.00,028.1,026.7,000.0,036.5,029.8,14.4,0000.0,0000.17,0000.42,0000.04
2023-10-13 00:01:00,SystemResetWarning,0820.1,5.00,000.00,028.2,026.7,000.0,036.5,029.8,14.4,0000.0,0000.16,0000.42,0000.04
2023-10-13 00:02:00,SystemResetWarning,0820.2,5.00,000.00,028.2,026.7,000.0,036.5,029.8,14.4,0000.0,0000.16,0000.51,0000.04
2023-10-13 00:03:00,SystemResetWarning,0820.1,4.99,000.00,028.2,026.7,000.0,036.5,029.8,14.2,0000.0,0000.13,0000.46,0000.04
2023-10-13 00:04:00,SystemResetWarning,0820.2,4.99,000.00,028.2,026.7,000.0,036.6,029.8,14.3,0000.0,0000.12,0000.48,0000.04
2023-10-13 00:05:00,SystemResetWarning,0820.2,5.00,000.00,028.2,026.7,000.0,036.6,029.8,14.4,0000.0,0000.11,0000.47,0000.04
2023-10-13 00:06:00,SystemResetWarning,0820.2,5.01,000.00,028.2,026.7,000.0,036.6,029.8,14.4,0000.0,0000.11,0000.62,0000.05
2023-10-13 00:07:00,SystemResetWarning,0820.3,5.00,000.00,028.2,026.7,000.0,036.6,029.8,14.3,0000.0,0000.10,0002.04,0000.05
2023-10-13 00:08:00,SystemResetWarning,0820.3,5.00,000.00,028.2,026.7,000.0,036.6,029.8,14.2,0000.0,0000.08,0001.96,0000.05
2023-10-13 00:09:00,SystemResetWarning,0820.4,5.00,000.00,028.2,026.7,000.0,036.6,029.8,13.9,0000.0,0000.11,0002.02,0000.05
2023-10-13 00:10:00,SystemResetWarning,0820.3,5.00,000.00,028.2,026.7,000.0,036.6,029.9,14.0,0000.0,0000.12,0002.51,0000.05
2023-10-13 00:11:00,SystemResetWarning,0820.3,5.00,000.00,028.2,026.7,000.0,036.6,029.9,13.7,0000.0,0000.18,0004.11,0000.05
2023-10-13 00:12:00,SystemResetWarning,0820.6,5.00,000.00,028.2,026.7,000.0,036.6,029.9,13.8,0000.0,0000.20,0004.20,0000.06
2023-10-13 00:13:00,SystemResetWarning,0820.7,5.00,000.00,028.2,026.8,000.0,036.6,029.9,13.9,0000.0,0000.19,0004.06,0000.06
2023-10-13 00:14:00,SystemResetWarning,0820.9,5.00,000.00,028.2,026.7,000.0,036.6,029.8,13.9,0000.0,0000.18,0004.14,0000.06
2023-10-13 00:15:00,SystemResetWarning,0820.7,5.00,000.00,028.2,026.7,000.0,036.6,029.8,13.9,0000.0,0000.23,0004.44,0000.06
2023-10-13 00:16:00,SystemResetWarning,0820.6,5.00,000.00,028.2,026.7,000.0,036.6,029.9,14.1,0000.0,0000.30,0004.62,0000.08
2023-10-13 00:17:00,SystemResetWarning,0820.6,5.00,000.00,028.2,026.7,000.0,036.6,029.9,14.4,0000.0,0000.35,0004.52,0000.10
2023-10-13 00:18:00,SystemResetWarning,0820.7,5.00,000.00,028.2,026.7,000.0,036.6,029.8,14.7,0000.0,0000.43,0003.97,0000.11
2023-10-13 00:19:00,SystemResetWarning,0820.5,5.00,000.00,028.2,026.7,000.0,036.6,029.8,14.4,0000.0,0000.48,0004.13,0000.13
2023-10-13 00:20:00,SystemResetWarning,0820.5,5.00,000.00,028.2,026.7,000.0,036.6,029.8,14.8,0000.0,0000.51,0004.39,0000.15
2023-10-13 00:21:00,SystemResetWarning,0820.6,5.00,000.00,028.2,026.7,000.0,036.6,029.8,14.9,0000.0,0000.52,0004.70,0000.16
2023-10-13 00:22:00,SystemResetWarning,0820.6,5.00,000.00,028.2,026.6,000.0,036.6,029.8,14.9,0000.0,0000.49,0003.37,0000.17
2023-10-13 00:23:00,SystemResetWarning,0820.6,5.00,000.00,028.2,026.6,000.0,036.6,029.8,14.8,0000.0,0000.52,0004.29,0000.19
2023-10-13 00:24:00,SystemResetWarning,0820.7,5.00,000.00,028.2,026.6,000.0,036.6,029.8,14.7,0000.0,0000.57,0006.27,0000.20
2023-10-13 00:25:00,SystemResetWarning,0820.7,5.00,000.00,028.2,026.6,000.0,036.6,029.8,14.7,0000.0,0000.63,0007.13,0000.22
2023-10-13 00:26:00,SystemResetWarning,0820.8,5.00,000.00,028.2,026.6,000.0,036.6,029.8,14.7,0000.0,0000.62,0007.41,0000.24
2023-10-13 00:27:00,SystemResetWarning,0820.8,5.00,000.00,028.2,026.6,000.0,036.6,029.8,14.8,0000.0,0000.61,0007.56,0000.24
2023-10-13 00:28:00,SystemResetWarning,0820.8,5.00,000.00,028.2,026.6,000.0,036.6,029.8,14.8,0000.0,0000.60,0007.59,0000.25
2023-10-13 00:29:00,SystemResetWarning,0820.8,5.01,000.00,028.2,026.6,000.0,036.6,029.8,15.0,0000.0,0000.60,0008.31,0000.26
2023-10-13 00:30:00,SystemResetWarning,0820.8,5.00,000.00,028.1,026.6,000.0,036.6,029.8,15.1,0000.0,0000.61,0009.06,0000.27
2023-10-13 00:31:00,SystemResetWarning,0820.8,5.00,000.00,028.1,026.6,000.0,036.6,029.8,15.1,0000.0,0000.62,0009.77,0000.27
2023-10-13 00:32:00,SystemResetWarning,0820.8,5.00,000.00,028.1,026.7,000.0,036.6,029.8,15.1,0000.0,0000.66,0009.41,0000.28
2023-10-13 00:33:00,SystemResetWarning,0820.8,4.99,000.00,028.1,026.7,000.0,036.6,029.8,15.2,0000.0,0000.72,0009.48,0000.28
2023-10-13 00:34:00,SystemResetWarning,0820.9,4.99,000.00,028.1,026.7,000.0,036.6,029.8,15.2,0000.0,0000.74,0009.64,0000.27
2023-10-13 00:35:00,SystemResetWarning,0821.1,5.00,000.00,028.1,026.7,000.0,036.6,029.8,15.3,0000.0,0000.75,0008.67,0000.26
2023-10-13 00:36:00,SystemResetWarning,0821.1,5.01,000.00,028.1,026.7,000.0,036.6,029.8,15.3,0000.0,0000.73,0008.20,0000.25
2023-10-13 00:37:00,SystemResetWarning,0821.0,5.01,000.00,028.2,026.7,000.0,036.6,029.8,15.4,0000.0,0000.74,0007.91,0000.23
2023-10-13 00:38:00,SystemResetWarning,0821.1,5.00,000.00,028.1,026.7,000.0,036.6,029.8,15.4,0000.0,0000.77,0008.25,0000.22
2023-10-13 00:39:00,SystemResetWarning,0821.1,4.99,000.00,028.2,026.7,000.0,036.6,029.8,15.4,0000.0,0000.81,0008.47,0000.20
2023-10-13 00:40:00,SystemResetWarning,0821.1,5.00,000.00,028.2,026.7,000.0,036.6,029.8,15.2,0000.0,0000.79,0007.92,0000.18
2023-10-13 00:41:00,SystemResetWarning,0821.1,5.00,000.00,028.2,026.7,000.0,036.6,029.9,15.3,0000.0,0000.82,0006.98,0000.17
2023-10-13 00:42:00,SystemResetWarning,0821.1,5.00,000.00,028.2,026.7,000.0,036.6,029.9,15.2,0000.0,0000.81,0005.42,0000.17
2023-10-13 00:43:00,SystemResetWarning,0821.2,5.00,000.00,028.2,026.7,000.0,036.6,029.9,14.9,0000.0,0000.82,0006.26,0000.17
2023-10-13 00:44:00,SystemResetWarning,0821.3,5.00,000.00,028.2,026.7,000.0,036.6,029.9,14.9,0000.0,0000.77,0006.14,0000.15
2023-10-13 00:45:00,SystemResetWarning,0821.2,5.00,000.00,028.2,026.7,000.0,036.6,029.9,14.8,0000.0,0000.70,0005.21,0000.15
2023-10-13 00:46:00,SystemResetWarning,0821.2,5.00,000.00,028.2,026.7,000.0,036.6,029.9,14.7,0000.0,0000.67,0005.02,0000.15
2023-10-13 00:47:00,SystemResetWarning,0821.1,5.00,000.00,028.2,026.7,000.0,036.6,029.9,14.6,0000.0,0000.65,0005.15,0000.15
2023-10-13 00:48:00,SystemResetWarning,0821.2,5.01,000.00,028.2,026.7,000.0,036.6,029.8,14.7,0000.0,0000.63,0005.06,0000.15
2023-10-13 00:49:00,SystemResetWarning,0821.2,5.00,000.00,028.2,026.7,000.0,036.6,029.9,14.7,0000.0,0000.62,0004.29,0000.15
2023-10-13 00:50:00,SystemResetWarning,0821.2,5.00,000.00,028.2,026.8,000.0,036.6,029.9,14.7,0000.0,0000.57,0003.95,0000.15
2023-10-13 00:51:00,SystemResetWarning,0821.3,5.00,000.00,028.2,026.8,000.0,036.6,029.9,14.7,0000.0,0000.51,0003.02,0000.15
2023-10-13 00:52:00,SystemResetWarning,0821.3,4.99,000.00,028.2,026.8,000.0,036.6,029.9,14.6,0000.0,0000.44,0002.90,0000.14
2023-10-13 00:53:00,SystemResetWarning,0821.3,4.99,000.00,028.2,026.8,000.0,036.6,029.9,14.6,0000.0,0000.45,0002.86,0000.13
2023-10-13 00:54:00,SystemResetWarning,0821.3,5.00,000.00,028.2,026.8,000.0,036.6,029.9,14.5,0000.0,0000.41,0001.84,0000.13
2023-10-13 00:55:00,SystemResetWarning,0821.4,5.00,000.00,028.2,026.8,000.0,036.6,029.9,14.5,0000.0,0000.38,0001.70,0000.13
2023-10-13 00:56:00,SystemResetWarning,0821.3,5.00,000.00,028.2,026.8,000.0,036.7,029.9,14.5,0000.0,0000.42,0002.70,0000.14
2023-10-13 00:57:00,SystemResetWarning,0821.4,5.00,000.00,028.2,026.8,000.0,036.7,029.9,14.5,0000.0,0000.42,0002.79,0000.15
2023-10-13 00:58:00,SystemResetWarning,0821.8,5.00,000.00,028.2,026.8,000.0,036.7,029.9,14.4,0000.0,0000.42,0002.58,0000.15
2023-10-13 00:59:00,SystemResetWarning,0822.0,5.00,000.00,028.2,026.8,000.0,036.7,029.9,14.4,0000.0,0000.42,0002.61,0000.16
